STARLINK-11119, 60121

Orbit data source: Space-Track

STARLINK-11119, 60121 is a payload satellite owned by SpaceX/Seattle (US) in LEO that was launched on Mon, 24 Jun 2024 UTC via an FALCON 9 launch vehicle from the Air Force Western Test Range (AFWTR). Payload-class satellites include a variety of spacecraft equipped with specific instruments for various scientific and technological missions. These include communications satellites like Starlink; space stations such as the ISS; scientific satellites like the Hubble; Earth observation satellites from companies like Planet Labs, Umbra, and HawkEye 360; GPS; miniature CubeSats for education and research; and military/defense satellites.

Loading next visibility...
Identifier
60121, 2024-118J
Orbit
LEO
Country
Flag of USUS
Related business
Manufacturer
SpaceX/Seattle
Mission
Operational Commercial Communications
Bus & Motor
STARLINK V2MD, Unknown motor
Mass
960 kg wet, ~910 kg dry
Launch date (UTC)
2024-06-24 (2 years ago)
Launch vehicle
FALCON 9
Launch site
Air Force Western Test Range (AFWTR)
Object type
Payload
Rocket body
Debris
Shape & HBR
Box + 2 Pan, 18.1 m
Radar Cross Section
36.964 m², Large (>1 m²)

Expand to show TLE details & history
Last TLE update: 17 hours ago

TLE from 17 hours ago
0 STARLINK-11119
1 60121U 24118J   26035.68929508  .00002149  00000-0  22607-4 0  9996
2 60121  53.1600  23.6880 0001532 122.7513 237.3653 15.69694839 92815
Epoch: 2026-02-04T16:32Z
TLE epoch observation values (Epoch: 2026-02-04T16:32:35.094Z)
Latitude
-0.00002°
Longitude
0.68949°
Altitude
361.242 km
Speed
7.693 km/s
True Right ascension
01h 34m 45s
True Declination
0° 00' 00"
Sunlit
Object was in daylight at epoch
Visualization orbit readout
Latitude
Unknown
Longitude
Unknown
Altitude
Unknown
Speed
Unknown
Apparent Right ascension
Unknown
Apparent Declination
Unknown
Sunlit
N/A
Visualization observer readout
Local Sidereal Time
11:13:48
Azimuth
Unknown
Elevation
Unknown
Doppler factor
Unknown
Orbital elements
Apogee altitude
361.063 km
Perigee altitude
358.999 km
Semi-major axis
6,738.168 km
Eccentricity
0.00015
Inclination
53.16°
RAAN
23.688°
Arg. of periapsis
122.7513°
True anomaly
237.35052°
Mean anomaly
237.3653°
Eccentric anomaly
237.35791°
Mean motion
3.92401 °/min
Orbital period
91.74 mins
BSTAR
0.000022607
Loading maneuver chart data...
Computing Atmospheric mass density...
Loading historical data...
Loading historical data...
Loading historical data...
Loading historical data...
Loading historical data...
Loading historical data...
Loading historical data...

Documentation

Showing up to 5 results
|